DECAYED

STARLINK-5438, 54786 (Decayed)

Orbit data source: Space-Track

STARLINK-5438, 54786 was a payload satellite owned by SpaceX/Seattle (US) in LEO that was launched on Sat, 17 Dec 2022 UTC via an FALCON 9 launch vehicle from the Air Force Eastern Test Range (AFETR). Payload-class satellites include a variety of spacecraft equipped with specific instruments for various scientific and technological missions. These include communications satellites like Starlink; space stations such as the ISS; scientific satellites like the Hubble; Earth observation satellites from companies like Planet Labs, Umbra, and HawkEye 360; GPS; miniature CubeSats for education and research; and military/defense satellites.

Not visible in the next 10 days
Identifier
54786, 2022-175AE
Orbit
Decayed
Last TLE update
9 months ago
Origin
Manufacturer
SpaceX/Seattle
Mission
Decayed Commercial Communications
Bus & Motor
STARLINK, Unknown motor
Mass
305 kg wet, ~290 kg dry
Launch date (UTC)
2022-12-17 (2 years ago)
Launch vehicle
FALCON 9
Launch site
Air Force Eastern Test Range (AFETR)
Object type
Payload
Rocket body
Debris
Shape & HBR
Box + 1 Pan, 8.86 m
Radar Cross Section
13.562 m², Large (>1 m²)

Expand to show TLE details & history

TLE from 9 months ago
0 STARLINK-5438
1 54786U 22175AE  24231.39156074  .23897683  12073-4  22479-2 0  9993
2 54786  53.2032  41.0576 0012187 184.9891 261.1427 16.37568852 92442
Epoch: 2024-08-18T09:23Z
Definitive object data (Epoch: 2024-08-18T09:23:50.847Z)
Latitude
53.17454°
Longitude
16.18141°
Altitude
180.011 km
Speed
7.804 km/s
True Right ascension
08h 17m 31s
True Declination
52° 59' 41"
Sunlit
Object was in daylight at TLE epoch
Visualization observer readout
Visualization observer readout
Orbital elements
Apogee altitude
180.522 km
Perigee altitude
164.555 km
Semi-major axis
6,550.675 km
Eccentricity
0.0012187
Inclination
53.2032°
RAAN
41.0576°
Arg. of periapsis
184.9891°
True anomaly
261.00475°
Mean anomaly
261.1427°
Eccentric anomaly
261.07372°
Mean motion
4.09368 °/min
BSTAR
0.0022479
Orbital period
87.94 mins
Loading maneuver chart data...
Loading SW <> Apogee altitude chart data...
Loading historical data...
Loading historical data...
Loading historical data...
Loading historical data...
Loading historical data...
Loading historical data...
Loading historical data...

STARLINK-5438 Visibility forecast

Observer location: undefined°, undefined°

This satellite is decayed
Span
Click to sort rows by Start time (UTC) header in descending order
Start Az.
Max El. time (UTC)
Max El. Az.
Max El.
End time (UTC)
End Az.
|